• In United Kingdom
  • List of Countries
  • For 7 days
  • Water Temperature
  • Satellite Maps
  • Weather Map
  • Weather Widgets
  • user-avatar
    Login

    Hourly Weather Algiers

    Today, 20 August, Sunday

    Time Temperature Precipitation Wind Pressure Humidity
    00:00 +27°C° 0 mm 4 mps 750 mmHg 80%
    01:00 +27°C° 0 mm 4 mps 750 mmHg 81%
    02:00 +27°C° 0 mm 4 mps 750 mmHg 82%
    03:00 +26°C° 0 mm 4 mps 749 mmHg 83%
    04:00 +26°C° 0 mm 4 mps 750 mmHg 83%
    05:00 +26°C° 0 mm 4 mps 750 mmHg 83%
    06:00 +27°C° 0 mm 4 mps 750 mmHg 83%
    07:00 +28°C° 0 mm 5 mps 750 mmHg 73%
    08:00 +30°C° 0 mm 5 mps 750 mmHg 63%
    09:00 +33°C° 0 mm 5 mps 751 mmHg 54%
    10:00 +34°C° 0 mm 6 mps 751 mmHg 49%
    11:00 +35°C° 0 mm 6 mps 751 mmHg 44%
    12:00 +36°C° 0 mm 7 mps 751 mmHg 40%
    13:00 +36°C° 0 mm 7 mps 751 mmHg 40%
    14:00 +36°C° 0 mm 7 mps 750 mmHg 41%
    15:00 +36°C° 0 mm 7 mps 750 mmHg 42%
    16:00 +35°C° 0 mm 7 mps 750 mmHg 46%
    17:00 +33°C° 0 mm 7 mps 750 mmHg 50%
    18:00 +32°C° 0 mm 7 mps 750 mmHg 54%
    19:00 +30°C° 0 mm 6 mps 750 mmHg 59%
    20:00 +29°C° 0 mm 6 mps 751 mmHg 63%
    21:00 +28°C° 0 mm 6 mps 751 mmHg 68%
    22:00 +28°C° 0 mm 6 mps 751 mmHg 70%
    23:00 +27°C° 0 mm 5 mps 751 mmHg 71%

    Tomorrow, 21 August, Monday

    Time Temperature Precipitation Wind Pressure Humidity
    00:00 +27°C° 0 mm 5 mps 751 mmHg 73%
    01:00 +26°C° 0 mm 5 mps 751 mmHg 74%
    02:00 +26°C° 0 mm 5 mps 751 mmHg 75%
    03:00 +26°C° 0 mm 5 mps 750 mmHg 76%
    04:00 +26°C° 0 mm 5 mps 750 mmHg 76%
    05:00 +26°C° 0 mm 5 mps 750 mmHg 75%
    06:00 +26°C° 0 mm 5 mps 750 mmHg 75%
    07:00 +27°C° 0 mm 5 mps 751 mmHg 65%
    08:00 +29°C° 0 mm 5 mps 751 mmHg 55%
    09:00 +32°C° 0 mm 6 mps 751 mmHg 45%
    10:00 +33°C° 0 mm 6 mps 751 mmHg 40%
    11:00 +34°C° 0 mm 6 mps 751 mmHg 36%
    12:00 +36°C° 0 mm 6 mps 750 mmHg 31%
    13:00 +36°C° 0 mm 6 mps 750 mmHg 31%
    14:00 +36°C° 0 mm 6 mps 750 mmHg 32%
    15:00 +35°C° 0 mm 6 mps 749 mmHg 32%
    16:00 +34°C° 0 mm 6 mps 749 mmHg 34%
    17:00 +33°C° 0 mm 6 mps 749 mmHg 37%
    18:00 +32°C° 0 mm 6 mps 749 mmHg 40%
    19:00 +29°C° 0 mm 5 mps 749 mmHg 44%
    20:00 +28°C° 0 mm 5 mps 750 mmHg 49%
    21:00 +27°C° 0 mm 4 mps 750 mmHg 53%
    22:00 +27°C° 0 mm 4 mps 750 mmHg 54%
    23:00 +26°C° 0 mm 4 mps 750 mmHg 55%

    Day after tomorrow, 22 August, Tuesday

    Time Temperature Precipitation Wind Pressure Humidity
    00:00 +26°C° 0 mm 3 mps 750 mmHg 57%
    01:00 +25°C° 0 mm 3 mps 750 mmHg 57%
    02:00 +25°C° 0 mm 3 mps 749 mmHg 57%
    03:00 +25°C° 0 mm 3 mps 749 mmHg 57%
    04:00 +25°C° 0 mm 3 mps 750 mmHg 55%
    05:00 +25°C° 0 mm 2 mps 750 mmHg 53%
    06:00 +25°C° 0 mm 2 mps 750 mmHg 52%
    07:00 +27°C° 0 mm 2 mps 750 mmHg 44%
    08:00 +29°C° 0 mm 2 mps 750 mmHg 37%
    09:00 +31°C° 0 mm 3 mps 750 mmHg 29%
    10:00 +34°C° 0 mm 3 mps 750 mmHg 28%
    11:00 +35°C° 0 mm 3 mps 750 mmHg 26%
    12:00 +36°C° 0 mm 4 mps 749 mmHg 24%
    13:00 +36°C° 0 mm 4 mps 749 mmHg 26%
    14:00 +36°C° 0 mm 4 mps 749 mmHg 28%
    15:00 +36°C° 0 mm 4 mps 748 mmHg 30%
    16:00 +34°C° 0 mm 4 mps 748 mmHg 34%
    17:00 +33°C° 0 mm 4 mps 748 mmHg 39%
    18:00 +32°C° 0 mm 4 mps 748 mmHg 43%
    19:00 +30°C° 0 mm 4 mps 748 mmHg 48%
    20:00 +29°C° 0 mm 3 mps 749 mmHg 52%
    21:00 +28°C° 0 mm 3 mps 749 mmHg 56%
    22:00 +27°C° 0 mm 3 mps 749 mmHg 56%
    23:00 +27°C° 0 mm 3 mps 749 mmHg 55%

    23 August, Wednesday

    Time Temperature Precipitation Wind Pressure Humidity
    00:00 +27°C° 0 mm 2 mps 748 mmHg 55%
    01:00 +26°C° 0 mm 2 mps 748 mmHg 54%
    02:00 +26°C° 0 mm 2 mps 748 mmHg 52%
    03:00 +26°C° 0 mm 2 mps 748 mmHg 51%
    04:00 +26°C° 0 mm 2 mps 748 mmHg 49%
    05:00 +26°C° 0 mm 3 mps 748 mmHg 48%
    06:00 +27°C° 0 mm 3 mps 749 mmHg 46%
    07:00 +29°C° 0 mm 3 mps 749 mmHg 40%
    08:00 +31°C° 0 mm 3 mps 749 mmHg 33%
    09:00 +35°C° 0 mm 3 mps 749 mmHg 27%
    10:00 +36°C° 0 mm 4 mps 749 mmHg 25%
    11:00 +37°C° 0 mm 4 mps 749 mmHg 23%
    12:00 +38°C° 0 mm 4 mps 749 mmHg 21%
    13:00 +39°C° 0 mm 5 mps 748 mmHg 23%
    14:00 +39°C° 0 mm 5 mps 748 mmHg 24%
    15:00 +39°C° 0 mm 5 mps 748 mmHg 26%
    16:00 +36°C° 0 mm 5 mps 748 mmHg 29%
    17:00 +35°C° 0 mm 5 mps 748 mmHg 33%
    18:00 +34°C° 0 mm 5 mps 748 mmHg 37%
    19:00 +33°C° 0 mm 4 mps 748 mmHg 41%
    20:00 +32°C° 0 mm 4 mps 748 mmHg 45%
    21:00 +29°C° 0 mm 4 mps 749 mmHg 49%
    22:00 +29°C° 0 mm 3 mps 749 mmHg 47%
    23:00 +29°C° 0 mm 3 mps 748 mmHg 45%

    24 August, Thursday

    Time Temperature Precipitation Wind Pressure Humidity
    00:00 +29°C° 0 mm 3 mps 748 mmHg 43%
    01:00 +29°C° 0 mm 3 mps 748 mmHg 42%
    02:00 +29°C° 0 mm 3 mps 748 mmHg 41%
    03:00 +29°C° 0 mm 3 mps 747 mmHg 40%
    04:00 +29°C° 0 mm 3 mps 748 mmHg 40%
    05:00 +30°C° 0 mm 3 mps 748 mmHg 40%
    06:00 +30°C° 0 mm 3 mps 748 mmHg 40%
    07:00 +33°C° 0 mm 3 mps 748 mmHg 36%
    08:00 +35°C° 0 mm 3 mps 748 mmHg 31%
    09:00 +38°C° 0 mm 3 mps 749 mmHg 27%
    10:00 +40°C° 0 mm 4 mps 748 mmHg 26%
    11:00 +41°C° 0 mm 4 mps 748 mmHg 24%
    12:00 +42°C° 0 mm 4 mps 748 mmHg 23%
    13:00 +42°C° 0 mm 5 mps 747 mmHg 24%
    14:00 +41°C° 0 mm 5 mps 747 mmHg 25%
    15:00 +41°C° 0 mm 5 mps 747 mmHg 26%
    16:00 +40°C° 0 mm 5 mps 747 mmHg 30%
    17:00 +38°C° 0 mm 4 mps 747 mmHg 33%
    18:00 +37°C° 0 mm 4 mps 747 mmHg 36%
    19:00 +36°C° 0 mm 3 mps 747 mmHg 38%
    20:00 +35°C° 0 mm 3 mps 747 mmHg 40%
    21:00 +34°C° 0 mm 2 mps 748 mmHg 43%
    22:00 +34°C° 0 mm 2 mps 747 mmHg 42%
    23:00 +34°C° 0 mm 2 mps 747 mmHg 40%

    25 August, Friday

    Time Temperature Precipitation Wind Pressure Humidity
    00:00 +34°C° 0 mm 2 mps 747 mmHg 39%
    01:00 +34°C° 0 mm 2 mps 747 mmHg 39%
    02:00 +32°C° 0 mm 2 mps 747 mmHg 39%
    03:00 +33°C° 0 mm 3 mps 746 mmHg 38%
    04:00 +32°C° 0 mm 2 mps 746 mmHg 38%
    05:00 +32°C° 0 mm 2 mps 747 mmHg 39%
    06:00 +31°C° 0 mm 2 mps 747 mmHg 39%
    07:00 +35°C° 0 mm 2 mps 747 mmHg 35%
    08:00 +37°C° 0 mm 2 mps 747 mmHg 30%
    09:00 +39°C° 0 mm 2 mps 747 mmHg 26%
    10:00 +39°C° 0 mm 2 mps 747 mmHg 25%
    11:00 +40°C° 0 mm 3 mps 747 mmHg 23%
    12:00 +42°C° 0 mm 3 mps 747 mmHg 22%
    13:00 +42°C° 0 mm 3 mps 746 mmHg 23%
    14:00 +42°C° 0 mm 3 mps 746 mmHg 25%
    15:00 +41°C° 0 mm 4 mps 745 mmHg 27%
    16:00 +39°C° 0 mm 3 mps 745 mmHg 31%
    17:00 +37°C° 0 mm 2 mps 745 mmHg 36%
    18:00 +36°C° 0 mm 2 mps 745 mmHg 40%
    19:00 +34°C° 0 mm 1 mps 746 mmHg 42%
    20:00 +33°C° 0 mm 1 mps 746 mmHg 44%
    21:00 +33°C° 0 mm 1 mps 746 mmHg 46%
    22:00 +33°C° 0 mm 1 mps 746 mmHg 44%
    23:00 +33°C° 0 mm 1 mps 746 mmHg 42%
    Show more